Location: Moscow
(55.7500°N, 37.5830°E)
Time: 19:30:39
(UTC+03:00)

Tiros 1 - Pass Details

Date: 07 December 2021
Orbit: 629 x 664 km, 48.4° (Epoch: 19 January)

Event Time Altitude Azimuth Distance (km) Brightness Sun altitude
Rises 19:46:02 0° 243° (WSW) 2,923 11.4 -30.4°
Reaches altitude 10° 19:48:31 10° 234° (SW) 2,020 10.2 -30.8°
Enters shadow 19:50:21 21° 218° (SW) 1,450 9.2 -31.0°
